This is the latest recevied weather packets stored in our database for station/object KE8URB. If no packets are shown the sender has not sent any weather packets the latest 10 day(s).
| Time | Temp. | Humidity | Pressure | Rain* | Wind** | Luminosity | Snow |
|---|---|---|---|---|---|---|---|
| 1787704698 | 20° C | 84% | 1018.9 hPa | 0 mm | - | 0 W/m² | - |
| 1787704393 | 20.56° C | 84% | 1018.7 hPa | 0 mm | - | 0 W/m² | - |
| 1787704088 | 20.56° C | 83% | 1019.1 hPa | 0 mm | - | 0 W/m² | - |
| 1787703787 | 20.56° C | 83% | 1019 hPa | 0 mm | - | 0 W/m² | - |
| 1787703483 | 21.11° C | 82% | 1019.1 hPa | 0 mm | - | 0 W/m² | - |
| 1787703178 | 21.11° C | 80% | 1018.9 hPa | 0 mm | - | 0 W/m² | - |
| 1787702873 | 21.67° C | 80% | 1018.8 hPa | 0 mm | - | 0 W/m² | - |
| 1787702568 | 22.22° C | 79% | 1018.6 hPa | 0 mm | - | 2 W/m² | - |
| 1787702264 | 22.78° C | 79% | 1018.5 hPa | 0 mm | - | 3 W/m² | - |
| 1787701958 | 23.33° C | 75% | 1018.8 hPa | 0 mm | - | 6 W/m² | - |
| 1787701655 | 23.89° C | 73% | 1018.8 hPa | 0 mm | - | 9 W/m² | - |
| 1787701350 | 23.89° C | 74% | 1018.5 hPa | 0 mm | - | 13 W/m² | - |
| 1787701045 | 23.89° C | 75% | 1018.6 hPa | 0 mm | - | 15 W/m² | - |
| 1787700740 | 25.56° C | 72% | 1018.5 hPa | 0 mm | - | 20 W/m² | - |
| 1787700437 | 26.11° C | 67% | 1018.7 hPa | 0 mm | - | 26 W/m² | - |
| 1787700133 | 25.56° C | 66% | 1018.6 hPa | 0 mm | - | 28 W/m² | - |
| 1787699829 | 25.56° C | 70% | 1018.7 hPa | 0 mm | - | 35 W/m² | - |
| 1787699529 | 25° C | 65% | 1018.6 hPa | 0 mm | - | 40 W/m² | - |
| 1787699224 | 25° C | 63% | 1018.8 hPa | 0 mm | - | 45 W/m² | - |
| 1787698921 | 25° C | 63% | 1018.8 hPa | 0 mm | - | 58 W/m² | - |
| 1787698621 | 25° C | 64% | 1019 hPa | 0 mm | - | 77 W/m² | - |
| 1787698317 | 25° C | 63% | 1018.9 hPa | 0 mm | - | 81 W/m² | - |
| 1787698013 | 25° C | 63% | 1018.7 hPa | 0 mm | - | 42 W/m² | - |
| 1787697712 | 24.44° C | 65% | 1019.1 hPa | 0 mm | - | 47 W/m² | - |
| 1787697408 | 24.44° C | 67% | 1019 hPa | 0 mm | - | 46 W/m² | - |
* Rain latest hour (hover to see other rain measurements)
** Current wind speed in m/s (hover to see current wind gust speed)